Weather History for Watertown, SD

Change the Weather History Date:

Wednesday, February 13, 2013

  Actual Average Record
Temperature  
Mean Temperature 24 °F 17 °F  
Max Temperature 36 °F 27 °F 56 °F (1983)
Min Temperature 12 °F 7 °F -31 °F (1905)
Degree Days  
Heating Degree Days 41 48  
Month to date heating degree days 607 648  
Since 1 July heating degree days 5577 5730  
Cooling Degree Days 0 0  
Month to date cooling degree days 0 0  
Year to date cooling degree days 0 0  
Moisture  
Dew Point 24 °F    
Average Humidity 91    
Maximum Humidity 100    
Minimum Humidity 81    
Precipitation  
Precipitation T in 0.01 in 0.51 in (1915)
Month to date precipitation 0.87 0.21  
Year to date precipitation 1.15 0.73  
Snow  
Snow T in - - ()
Month to date snowfall 10.5  
Since 1 July snowfall 23.1  
Snow Depth 16.00 in    
Sea Level Pressure  
Sea Level Pressure 29.71 in    
Wind  
Wind Speed 10 mph (West)    
Max Wind Speed 26 mph    
Max Gust Speed 33 mph    
Visibility 10 miles    
Events Snow    
T = Trace of Precipitation, MM = Missing Value Source: NWS Daily Summary

Daily Weather History Graph

Daily Weather History Graph

Search for Another Location

Airport:

Trip Planner

Search our weather history database for the weather conditions in past years. The results will help you decide how hot, cold, wet, or windy it might be!

Date:

Astronomy

Feb. 13, 2013 Rise Set
Actual Time 7:31 AM CST 5:54 PM CST
Civil Twilight 7:01 AM CST 6:24 PM CST
Nautical Twilight 6:27 AM CST 6:59 PM CST
Astronomical Twilight 5:53 AM CST 7:33 PM CST
Moon 8:49 AM CST (2/13) 10:12 PM CST (2/13)
Length of Visible Light 11h 23m
Length of Day
10h 22m
Waxing Crescent, 14% of the Moon is Illuminated
Feb 13
Waxing Crescent
Feb 17
First Quarter
Feb 25
Full
Mar 4
Last Quarter
Mar 11
New

Hourly Weather History & Observations

Time (CST) Temp. Windchill Dew Point Humidity Pressure Visibility Wind Dir Wind Speed Gust Speed Precip Events Conditions
12:53 AM 19.9 °F - 18.0 °F 92% 29.87 in 10.0 mi Calm Calm - N/A   Overcast
1:53 AM 23.0 °F - 21.0 °F 92% 29.86 in 10.0 mi Calm Calm - N/A   Overcast
2:53 AM 21.0 °F 16.2 °F 19.0 °F 92% 29.85 in 10.0 mi South 3.5 mph - N/A   Overcast
3:53 AM 21.0 °F - 19.9 °F 96% 29.83 in 10.0 mi Calm Calm - N/A   Overcast
4:53 AM 17.1 °F 10.0 °F 15.1 °F 92% 29.82 in 10.0 mi South 4.6 mph - N/A   Clear
6:53 AM 14.0 °F 3.9 °F 12.9 °F 95% 29.78 in 7.0 mi South 6.9 mph - N/A   Clear
7:53 AM 15.1 °F - 12.9 °F 91% 29.78 in 10.0 mi Calm Calm - N/A   Clear
8:53 AM 18.0 °F - 17.1 °F 96% 29.78 in 10.0 mi Calm Calm - N/A   Clear
9:53 AM 19.0 °F 11.1 °F 17.1 °F 92% 29.76 in 10.0 mi South 5.8 mph - N/A   Clear
10:53 AM 26.1 °F 16.8 °F 21.9 °F 84% 29.75 in 10.0 mi WSW 9.2 mph - N/A   Overcast
11:53 AM 28.9 °F 23.9 °F 25.0 °F 85% 29.71 in 10.0 mi South 4.6 mph - 0.06 in   Overcast
12:53 PM 30.9 °F 22.8 °F 26.1 °F 82% 29.66 in 10.0 mi South 9.2 mph - N/A   Overcast
1:53 PM 33.1 °F 24.9 °F 28.0 °F 82% 29.63 in 10.0 mi SSW 10.4 mph - N/A   Overcast
2:53 PM 33.1 °F 23.0 °F 28.0 °F 82% 29.62 in 7.0 mi WSW 15.0 mph - 0.00 in Snow Light Snow
3:53 PM 33.1 °F 23.9 °F 28.9 °F 85% 29.62 in 10.0 mi WSW 12.7 mph - 0.00 in   Overcast
4:37 PM 33.8 °F 24.3 °F 28.4 °F 81% 29.56 in 10.0 mi West 13.8 mph - N/A   Overcast
4:53 PM 34.0 °F 24.6 °F 28.9 °F 82% 29.62 in 10.0 mi West 13.8 mph - N/A   Overcast
5:53 PM 35.1 °F 25.5 °F 30.0 °F 82% 29.63 in 10.0 mi WNW 15.0 mph 20.7 mph N/A   Overcast
6:40 PM 35.6 °F 25.5 °F 30.2 °F 81% 29.58 in 10.0 mi WNW 17.3 mph 28.8 mph N/A   Overcast
6:53 PM 34.0 °F 23.4 °F 30.9 °F 89% 29.65 in 8.0 mi WNW 17.3 mph - N/A   Overcast
7:30 PM 33.8 °F 22.5 °F 30.2 °F 87% 29.59 in 10.0 mi NW 19.6 mph 25.3 mph N/A   Overcast
7:53 PM 33.1 °F 20.6 °F 30.9 °F 92% 29.68 in 10.0 mi NW 23.0 mph 33.4 mph N/A   Overcast
8:40 PM 30.2 °F 17.1 °F 28.4 °F 93% 29.63 in 10.0 mi NNW 21.9 mph 29.9 mph N/A   Overcast
8:53 PM 30.0 °F 16.9 °F 28.0 °F 92% 29.71 in 10.0 mi NNW 21.9 mph - N/A   Overcast
9:53 PM 28.0 °F 15.7 °F 26.1 °F 92% 29.74 in 10.0 mi NNW 17.3 mph - N/A   Overcast
10:53 PM 27.0 °F 14.7 °F 25.0 °F 92% 29.76 in 10.0 mi NNW 16.1 mph - N/A   Overcast
11:48 PM 26.6 °F 13.1 °F 23.0 °F 86% 29.73 in 10.0 mi NNW 19.6 mph - N/A   Overcast
11:53 PM 26.1 °F 13.1 °F 23.0 °F 88% 29.80 in 10.0 mi NNW 17.3 mph - N/A   Overcast